Stations météo

réclame
Mon MeteoGroup
Asturias/Aviles, Espagne (8011): Température de l'air & dewpoint: 14.10.2018 19:00:00 - 20.10.2018 19:00:00 (CEST)Asturias/Aviles, Espagne (8011): Vitesse du vent: 14.10.2018 19:00:00 - 20.10.2018 19:00:00 (CEST)Asturias/Aviles, Espagne (8011): Direction du vent: 14.10.2018 19:00:00 - 20.10.2018 19:00:00 (CEST)Asturias/Aviles, Espagne (8011): reduced air pressure: 14.10.2018 19:00:00 - 20.10.2018 19:00:00 (CEST)Asturias/Aviles, Espagne (8011): visibility: 14.10.2018 19:00:00 - 20.10.2018 19:00:00 (CEST)
Date & Time tt [°C] td [°C] ff [km/h] ff [knt] dd ppp [hPa] vv [km]
20.10.2018 19:00:00 16,7 15,2 0 0 N 1022,9 -
20.10.2018 18:00:00 17,3 14,8 11 6 E 1022,9 -
20.10.2018 17:00:00 17,9 15,2 9 5 ESE 1023,1 8
20.10.2018 16:00:00 17,5 15,1 13 7 E 1023,5 -
20.10.2018 15:00:00 18,1 15,4 11 6 E 1023,9 -
20.10.2018 14:00:00 19,4 12,8 13 7 ESE 1024,5 7
20.10.2018 13:00:00 17,4 12,3 16 9 ESE 1025,2 -
20.10.2018 12:00:00 16,1 12,5 8 4 ESE 1025,6 -
20.10.2018 11:00:00 14,3 11,6 9 5 S 1025,3 3,0
20.10.2018 10:00:00 13,2 10,7 11 6 SSW 1024,6 -
20.10.2018 09:00:00 11,9 9,5 13 7 SSW 1024,1 -
20.10.2018 08:00:00 11,9 9,3 8 4 SE 1023,6 3,3
20.10.2018 07:00:00 12,1 9,5 8 4 SE 1023,6 -
20.10.2018 06:00:00 13,2 10,4 8 4 ESE 1023,1 -
20.10.2018 05:00:00 15,0 11,9 4 2 SE 1023,0 -
20.10.2018 04:00:00 15,2 12,3 4 2 SE 1023,3 -
20.10.2018 03:00:00 15,7 12,6 8 4 SE 1023,6 -
20.10.2018 02:00:00 15,8 12,9 8 4 ESE 1023,5 -
20.10.2018 01:00:00 15,3 12,4 9 5 ESE 1023,5 -
20.10.2018 00:00:00 15,5 12,6 9 5 SE 1023,2 -
19.10.2018 23:00:00 15,9 13,0 9 5 ESE 1023,4 1,7
19.10.2018 22:00:00 15,9 13,2 9 5 ESE 1022,9 -
19.10.2018 21:00:00 16,0 13,8 15 8 ESE 1022,4 -
19.10.2018 20:00:00 15,6 14,3 11 6 SE 1021,8 3,0
19.10.2018 19:00:00 17,1 15,6 8 4 ENE 1021,2 -
19.10.2018 18:00:00 17,5 15,7 11 6 E 1020,8 -
19.10.2018 17:00:00 17,9 15,6 11 6 E 1020,5 5
19.10.2018 16:00:00 18,4 15,6 11 6 E 1020,4 -
19.10.2018 15:00:00 19,7 13,8 11 6 E 1020,4 -
19.10.2018 14:00:00 18,0 13,2 8 4 E 1020,8 4,5
19.10.2018 13:00:00 17,9 13,2 5 3 NE 1021,1 -
19.10.2018 12:00:00 17,3 13,0 8 4 W 1021,1 -
19.10.2018 11:00:00 15,2 12,5 11 6 S 1020,5 5
19.10.2018 10:00:00 14,5 12,0 5 3 SW 1020,2 -
19.10.2018 09:00:00 13,5 11,1 9 5 SW 1019,0 -
19.10.2018 08:00:00 13,6 11,1 8 4 SSW 1018,7 4,0
19.10.2018 07:00:00 14,0 11,5 9 5 SSW 1018,9 -
19.10.2018 06:00:00 13,8 11,3 5 3 SSW 1019,1 -
19.10.2018 05:00:00 14,1 11,6 8 4 SW 1019,2 -
19.10.2018 04:00:00 14,9 12,4 2 1 WSW 1019,6 -
19.10.2018 03:00:00 15,1 12,6 2 1 WSW 1019,4 -
19.10.2018 02:00:00 15,2 12,7 8 4 SW 1019,3 -
19.10.2018 01:00:00 15,4 12,9 2 1 WSW 1019,4 -
19.10.2018 00:00:00 15,3 12,8 0 0 N 1019,2 -
18.10.2018 23:00:00 15,5 13,2 8 4 NW 1019,1 6
18.10.2018 22:00:00 15,2 13,0 4 2 S 1018,5 -
18.10.2018 21:00:00 15,3 13,7 4 2 SE 1018,2 -
18.10.2018 20:00:00 16,2 14,9 9 5 E 1017,7 8
18.10.2018 19:00:00 17,0 15,5 8 4 E 1017,0 -
18.10.2018 18:00:00 18,4 16,4 5 3 E 1016,9 -
18.10.2018 17:00:00 19,4 16,4 8 4 E 1017,0 8
18.10.2018 16:00:00 18,3 14,8 8 4 ENE 1016,9 -
18.10.2018 15:00:00 17,4 14,1 9 5 ENE 1017,3 -
18.10.2018 14:00:00 17,1 14,2 11 6 E 1017,5 4,0
18.10.2018 13:00:00 18,0 14,3 8 4 ENE 1017,8 -
18.10.2018 12:00:00 17,1 13,8 8 4 E 1017,8 -
18.10.2018 11:00:00 16,6 13,3 5 3 ENE 1017,8 6
18.10.2018 10:00:00 16,0 12,5 5 3 E 1017,4 -
18.10.2018 09:00:00 15,7 12,3 8 4 ENE 1016,8 -
18.10.2018 08:00:00 15,5 12,1 8 4 E 1016,3 7
18.10.2018 07:00:00 15,4 12,2 9 5 E 1016,2 -
18.10.2018 06:00:00 15,3 12,4 11 6 E 1015,6 -
18.10.2018 05:00:00 15,1 12,6 11 6 E 1015,5 -
18.10.2018 04:00:00 14,7 12,2 9 5 ESE 1015,6 -
18.10.2018 03:00:00 14,4 11,9 5 3 ESE 1015,7 -
18.10.2018 02:00:00 14,1 11,6 4 2 S 1015,8 -
18.10.2018 01:00:00 14,1 11,6 8 4 WSW 1015,8 -
18.10.2018 00:00:00 14,0 11,5 5 3 SW 1015,9 -
17.10.2018 23:00:00 14,0 11,5 8 4 SW 1016,0 4,5
17.10.2018 22:00:00 14,0 11,5 5 3 SSW 1015,9 -
17.10.2018 21:00:00 14,2 11,9 4 2 NNW 1015,8 -
17.10.2018 20:00:00 14,2 12,1 4 2 W 1015,6 4,0
17.10.2018 19:00:00 14,2 12,8 15 8 WNW 1015,3 -
17.10.2018 18:00:00 15,0 14,0 9 5 WNW 1014,8 -
17.10.2018 17:00:00 15,6 14,5 11 6 NW 1014,6 8
17.10.2018 16:00:00 17,0 14,6 8 4 NNW 1014,4 -
17.10.2018 15:00:00 17,2 15,0 9 5 NNE 1014,8 -
17.10.2018 14:00:00 17,0 14,4 8 4 NNE 1015,4 9
17.10.2018 13:00:00 17,3 14,2 8 4 N 1016,2 -
17.10.2018 12:00:00 16,9 11,6 5 3 SSE 1016,6 -
17.10.2018 11:00:00 13,4 10,2 11 6 SSW 1017,4 9
17.10.2018 10:00:00 11,7 9,4 13 7 SSW 1017,8 -
17.10.2018 09:00:00 11,2 9,0 13 7 SSW 1017,9 -
17.10.2018 08:00:00 11,3 9,2 8 4 S 1018,2 4,5
17.10.2018 07:00:00 11,0 9,1 8 4 SSW 1018,2 -
17.10.2018 06:00:00 10,9 9,0 0 0 N 1018,3 -
17.10.2018 05:00:00 11,3 9,4 8 4 SW 1018,3 -
17.10.2018 04:00:00 11,6 9,7 5 3 SSW 1018,7 -
17.10.2018 03:00:00 12,2 10,3 2 1 SW 1019,0 -
17.10.2018 02:00:00 12,5 10,9 8 4 SSW 1019,2 -
17.10.2018 01:00:00 12,7 11,4 11 6 SSW 1019,5 -
17.10.2018 00:00:00 12,0 10,7 8 4 S 1019,8 -
16.10.2018 23:00:00 12,0 10,9 11 6 SE 1019,9 18
16.10.2018 22:00:00 12,8 11,9 8 4 SE 1019,7 -
16.10.2018 21:00:00 13,1 11,8 13 7 SE 1019,4 -
16.10.2018 20:00:00 15,1 13,3 13 7 ESE 1019,2 20
16.10.2018 19:00:00 16,5 14,0 9 5 E 1018,6 -
16.10.2018 18:00:00 18,0 14,9 8 4 E 1018,3 -
16.10.2018 17:00:00 18,4 15,5 9 5 N 1018,2 25
16.10.2018 16:00:00 18,7 15,0 9 5 N 1017,9 -
16.10.2018 15:00:00 18,0 14,4 9 5 N 1018,0 -
16.10.2018 14:00:00 17,6 13,9 8 4 N 1018,0 25
16.10.2018 13:00:00 17,8 12,7 8 4 N 1017,8 -
16.10.2018 12:00:00 17,5 12,0 8 4 SSW 1017,4 -
16.10.2018 11:00:00 14,5 10,9 13 7 SSW 1017,5 25
16.10.2018 10:00:00 12,8 10,2 9 5 SW 1017,2 -
16.10.2018 09:00:00 11,1 9,4 11 6 SSW 1016,1 -
16.10.2018 08:00:00 10,4 9,0 9 5 SW 1015,6 20
16.10.2018 07:00:00 11,1 9,4 11 6 SSW 1014,8 -
16.10.2018 06:00:00 11,2 9,6 16 9 SSW 1014,6 -
16.10.2018 05:00:00 11,2 9,8 15 8 SSW 1014,4 -
16.10.2018 04:00:00 11,0 9,6 13 7 SSW 1014,2 -
16.10.2018 03:00:00 11,0 9,4 9 5 SSW 1013,7 -
16.10.2018 02:00:00 11,1 9,7 9 5 SSW 1013,3 -
16.10.2018 01:00:00 11,7 9,9 0 0 N 1013,1 -
16.10.2018 00:00:00 11,6 9,8 8 4 SSW 1012,6 -
15.10.2018 23:00:00 11,2 9,6 5 3 S 1012,1 18
15.10.2018 22:00:00 12,4 10,5 9 5 SSE 1011,6 -
15.10.2018 21:00:00 13,0 11,1 4 2 SE 1011,1 -
15.10.2018 20:00:00 14,7 11,0 15 8 ESE 1010,1 25
15.10.2018 19:00:00 16,5 11,4 13 7 ESE 1009,0 -
15.10.2018 18:00:00 17,9 11,2 11 6 E 1008,3 -
15.10.2018 17:00:00 18,7 9,8 13 7 E 1007,3 30
15.10.2018 16:00:00 19,3 9,1 11 6 E 1006,7 -
15.10.2018 15:00:00 19,6 10,9 13 7 ESE 1006,6 -
15.10.2018 14:00:00 19,4 12,1 13 7 ESE 1007,0 28
15.10.2018 13:00:00 17,7 11,8 13 7 ESE 1006,2 -
15.10.2018 12:00:00 14,0 11,6 5 3 S 1006,3 -
15.10.2018 11:00:00 12,7 10,7 13 7 S 1005,3 20
15.10.2018 10:00:00 10,7 9,3 15 8 SSW 1006,1 -
15.10.2018 09:00:00 10,3 9,1 11 6 SSW 1005,9 -
15.10.2018 08:00:00 10,4 8,8 15 8 SSW 1005,8 10
15.10.2018 07:00:00 10,2 8,5 11 6 S 1005,5 -
15.10.2018 06:00:00 10,8 9,2 18 10 SE 1005,6 -
15.10.2018 05:00:00 10,5 9,1 15 8 SSW 1007,0 -
15.10.2018 04:00:00 10,7 9,1 16 9 SSW 1007,9 -
15.10.2018 03:00:00 10,7 9,1 13 7 SSW 1008,8 -
15.10.2018 02:00:00 10,7 9,1 11 6 SSW 1009,3 -
15.10.2018 01:00:00 10,8 9,4 15 8 SSW 1009,9 -
15.10.2018 00:00:00 10,7 9,5 11 6 SW 1010,8 -
14.10.2018 23:00:00 10,9 9,2 8 4 SW 1011,4 15
14.10.2018 22:00:00 11,8 9,4 8 4 SW 1012,0 -
14.10.2018 21:00:00 13,3 10,3 9 5 W 1011,8 -
14.10.2018 20:00:00 13,3 9,7 22 12 W 1011,5 15
14.10.2018 19:00:00 14,3 10,9 22 12 W 1011,1 -

tt = Température de l'air
td = dewpoint
ff = Vitesse du vent
dd = Direction du vent
ppp = reduced air pressure
vv = visibility

stations d'obs. à proximité